THY4KY SAEZ-LTFM

Flight info

Callsign THY4KY
Flight time N/A
Altitude 33000
Route PAPIX1J PAPIX DCT DUR DCT COA DCT ITBEB UN857 VUPIP UL206 VRI UL330 EMTUP/N0481F350 UL330 UDIGA DCT 01N020W 09N010W/N0472F370 DCT RIPUL DCT 20N000E DCT BERTI DCT GRT/N0459F390 DCT BONAR DCT ATV UN604 AMANI UG8 SUDES UN604 INBET
Aircraft A346/H-SDE2E3FGHIJ3J4J5M1RWXY/LB1D1

Departure

Time 2026-05-03 21:57
Airport Ezeiza International Airport - Ministro Pistarini (SAEZ)

Arrival

Time N/A
Airport İstanbul Airport (LTFM)
Time Latitude Longitude Altitude Speed Heading
2026-05-03 20:57 -34.81563 -58.53922 93 ft 0 kts 320°
2026-05-03 21:42 -34.81567 -58.53918 93 ft 2 kts 320°
2026-05-03 21:42 -34.81575 -58.53910 93 ft 2 kts 320°
2026-05-03 21:43 -34.81586 -58.53898 93 ft 2 kts 312°
2026-05-03 21:43 -34.81595 -58.53884 93 ft 2 kts 304°
2026-05-03 21:43 -34.81603 -58.53869 93 ft 2 kts 297°
2026-05-03 21:43 -34.81609 -58.53852 94 ft 2 kts 290°
2026-05-03 21:44 -34.81614 -58.53834 94 ft 2 kts 283°
2026-05-03 21:44 -34.81616 -58.53817 93 ft 2 kts 276°
2026-05-03 21:44 -34.81617 -58.53799 93 ft 2 kts 268°
2026-05-03 21:44 -34.81615 -58.53781 93 ft 2 kts 261°
2026-05-03 21:45 -34.81612 -58.53764 92 ft 2 kts 254°
2026-05-03 21:45 -34.81608 -58.53746 92 ft 2 kts 247°
2026-05-03 21:45 -34.81601 -58.53730 92 ft 2 kts 239°
2026-05-03 21:45 -34.81593 -58.53715 92 ft 2 kts 232°
2026-05-03 21:46 -34.81586 -58.53705 92 ft 0 kts 227°
2026-05-03 21:46 -34.81584 -58.53702 92 ft 0 kts 226°
2026-05-03 21:50 -34.81590 -58.53710 92 ft 3 kts 226°
2026-05-03 21:50 -34.81613 -58.53739 92 ft 6 kts 226°
2026-05-03 21:50 -34.81656 -58.53761 92 ft 8 kts 173°
2026-05-03 21:50 -34.81726 -58.53731 90 ft 12 kts 156°
2026-05-03 21:51 -34.81813 -58.53684 87 ft 14 kts 155°
2026-05-03 21:51 -34.81894 -58.53619 84 ft 13 kts 124°
2026-05-03 21:51 -34.81929 -58.53503 81 ft 15 kts 104°
2026-05-03 21:51 -34.81956 -58.53371 81 ft 16 kts 103°
2026-05-03 21:52 -34.81982 -58.53237 80 ft 16 kts 103°
2026-05-03 21:52 -34.82008 -58.53102 79 ft 16 kts 103°
2026-05-03 21:52 -34.82037 -58.52959 77 ft 18 kts 104°
2026-05-03 21:52 -34.82068 -58.52807 77 ft 18 kts 104°
2026-05-03 21:53 -34.82098 -58.52651 75 ft 19 kts 103°
2026-05-03 21:53 -34.82125 -58.52520 76 ft 15 kts 104°
2026-05-03 21:53 -34.82151 -58.52391 76 ft 15 kts 104°
2026-05-03 21:53 -34.82177 -58.52262 77 ft 16 kts 104°
2026-05-03 21:54 -34.82203 -58.52127 77 ft 16 kts 103°
2026-05-03 21:54 -34.82230 -58.51989 76 ft 16 kts 104°
2026-05-03 21:54 -34.82259 -58.51844 74 ft 15 kts 103°
2026-05-03 21:54 -34.82304 -58.51783 72 ft 7 kts 168°
2026-05-03 21:55 -34.82326 -58.51785 72 ft 2 kts 186°
2026-05-03 21:55 -34.82353 -58.51789 72 ft 4 kts 188°
2026-05-03 21:55 -34.82390 -58.51797 73 ft 4 kts 191°
2026-05-03 21:55 -34.82427 -58.51806 73 ft 6 kts 192°
2026-05-03 21:56 -34.82479 -58.51819 73 ft 8 kts 192°
2026-05-03 21:56 -34.82516 -58.51889 74 ft 27 kts 268°
2026-05-03 21:56 -34.82435 -58.52390 80 ft 93 kts 282°
2026-05-03 21:56 -34.82257 -58.53399 80 ft 149 kts 283°
2026-05-03 21:57 -34.82008 -58.54823 131 ft 186 kts 285°
2026-05-03 21:57 -34.81731 -58.56366 572 ft 185 kts 285°
2026-05-03 21:57 -34.81472 -58.57865 1099 ft 183 kts 286°
2026-05-03 21:57 -34.81235 -58.59380 1587 ft 186 kts 286°
2026-05-03 21:58 -34.81082 -58.60956 2064 ft 192 kts 279°
2026-05-03 21:58 -34.81269 -58.62604 2490 ft 205 kts 249°
2026-05-03 21:58 -34.82242 -58.63936 2741 ft 220 kts 221°
2026-05-03 21:58 -34.83411 -58.65147 2943 ft 227 kts 230°
2026-05-03 21:59 -34.84558 -58.66544 3153 ft 239 kts 231°
2026-05-03 21:59 -34.85776 -58.68038 3382 ft 254 kts 230°
2026-05-03 21:59 -34.87065 -58.69582 3664 ft 268 kts 229°
2026-05-03 21:59 -34.88580 -58.70994 4070 ft 283 kts 204°
2026-05-03 22:00 -34.90557 -58.71344 4445 ft 299 kts 171°
2026-05-03 22:00 -34.92475 -58.70359 4982 ft 304 kts 141°
2026-05-03 22:00 -34.94039 -58.68625 5604 ft 306 kts 133°
2026-05-03 22:00 -34.95435 -58.66642 6163 ft 310 kts 127°
2026-05-03 22:01 -34.96653 -58.64453 6722 ft 314 kts 120°
2026-05-03 22:01 -34.97655 -58.62104 7292 ft 316 kts 113°
2026-05-03 22:01 -34.98426 -58.59584 7807 ft 319 kts 106°
2026-05-03 22:01 -34.98933 -58.56946 8140 ft 322 kts 98°
2026-05-03 22:02 -34.98998 -58.54244 8652 ft 322 kts 74°
2026-05-03 22:02 -34.98053 -58.51825 9199 ft 314 kts 44°
2026-05-03 22:02 -34.96394 -58.50173 9681 ft 310 kts 31°
2026-05-03 22:02 -34.94601 -58.48682 10122 ft 316 kts 31°
2026-05-03 22:03 -34.92783 -58.47131 10439 ft 327 kts 32°
2026-05-03 22:03 -34.90896 -58.45467 10674 ft 340 kts 33°
2026-05-03 22:03 -34.88959 -58.43718 10901 ft 353 kts 34°
2026-05-03 22:03 -34.86959 -58.41889 11123 ft 366 kts 34°
2026-05-03 22:04 -34.84886 -58.39979 11342 ft 378 kts 34°
2026-05-03 22:04 -34.82771 -58.38021 11561 ft 391 kts 35°
2026-05-03 22:04 -34.80557 -58.35971 11870 ft 400 kts 35°
2026-05-03 22:04 -34.78339 -58.33915 12340 ft 404 kts 34°
2026-05-03 22:05 -34.76100 -58.31839 12821 ft 408 kts 34°
2026-05-03 22:05 -34.73842 -58.29749 13269 ft 412 kts 35°
2026-05-03 22:05 -34.71561 -58.27639 13722 ft 416 kts 35°
2026-05-03 22:05 -34.69231 -58.25483 14198 ft 419 kts 35°
2026-05-03 22:06 -34.66895 -58.23323 14650 ft 423 kts 34°
2026-05-03 22:06 -34.64553 -58.21160 15134 ft 426 kts 34°
2026-05-03 22:06 -34.62183 -58.18973 15598 ft 429 kts 34°
2026-05-03 22:06 -34.59805 -58.16782 16043 ft 432 kts 34°
2026-05-03 22:07 -34.57398 -58.14565 16528 ft 435 kts 34°
2026-05-03 22:07 -34.54996 -58.12354 16941 ft 437 kts 34°
2026-05-03 22:07 -34.52563 -58.10117 17355 ft 441 kts 34°
2026-05-03 22:07 -34.50106 -58.07860 17728 ft 444 kts 34°
2026-05-03 22:08 -34.47626 -58.05584 18131 ft 446 kts 34°
2026-05-03 22:08 -34.45117 -58.03283 18517 ft 449 kts 34°
2026-05-03 22:08 -34.42690 -58.00882 18947 ft 454 kts 39°
2026-05-03 22:08 -34.40414 -57.98241 19359 ft 458 kts 44°
2026-05-03 22:09 -34.38290 -57.95354 19725 ft 461 kts 47°
2026-05-03 22:09 -34.36223 -57.92366 20091 ft 464 kts 48°
2026-05-03 22:09 -34.34156 -57.89352 20452 ft 467 kts 49°
2026-05-03 22:10 -34.29970 -57.83265 21208 ft 472 kts 48°
2026-05-03 22:10 -34.27862 -57.80215 21577 ft 474 kts 48°
2026-05-03 22:10 -34.25729 -57.77135 21914 ft 477 kts 48°
2026-05-03 22:10 -34.23590 -57.74052 22275 ft 479 kts 48°
2026-05-03 22:11 -34.21467 -57.70998 22611 ft 481 kts 49°
2026-05-03 22:11 -34.19300 -57.67881 22972 ft 483 kts 48°
2026-05-03 22:11 -34.17147 -57.64788 23286 ft 486 kts 48°
2026-05-03 22:11 -34.14970 -57.61663 23583 ft 489 kts 48°
2026-05-03 22:12 -34.12758 -57.58490 23896 ft 491 kts 48°
2026-05-03 22:12 -34.10568 -57.55356 24201 ft 494 kts 48°
2026-05-03 22:12 -34.08367 -57.52206 24517 ft 496 kts 49°
2026-05-03 22:12 -34.06123 -57.48997 24825 ft 498 kts 49°
2026-05-03 22:13 -34.03898 -57.45818 25115 ft 501 kts 49°
2026-05-03 22:13 -34.01634 -57.42589 25401 ft 504 kts 49°
2026-05-03 22:13 -33.99388 -57.39384 25697 ft 506 kts 49°
2026-05-03 22:13 -33.97100 -57.36125 26007 ft 508 kts 49°
2026-05-03 22:14 -33.94825 -57.32887 26271 ft 510 kts 48°
2026-05-03 22:14 -33.92530 -57.29621 26526 ft 513 kts 48°
2026-05-03 22:14 -33.90241 -57.26371 26796 ft 514 kts 48°
2026-05-03 22:14 -33.87912 -57.23063 27045 ft 517 kts 48°
2026-05-03 22:15 -33.85579 -57.19755 27278 ft 519 kts 48°
2026-05-03 22:15 -33.83237 -57.16436 27521 ft 521 kts 48°
2026-05-03 22:15 -33.80906 -57.13136 27748 ft 523 kts 49°
2026-05-03 22:15 -33.78535 -57.09781 28046 ft 524 kts 48°
2026-05-03 22:16 -33.76201 -57.06481 28416 ft 523 kts 48°
2026-05-03 22:16 -33.73856 -57.03170 28767 ft 522 kts 48°
2026-05-03 22:16 -33.71500 -56.99849 29098 ft 522 kts 49°
2026-05-03 22:16 -33.69121 -56.96498 29428 ft 521 kts 49°
2026-05-03 22:17 -33.66789 -56.93212 29757 ft 520 kts 49°
2026-05-03 22:17 -33.64433 -56.89898 30068 ft 520 kts 49°
2026-05-03 22:17 -33.62104 -56.86627 30363 ft 520 kts 49°
2026-05-03 22:17 -33.59743 -56.83311 30653 ft 520 kts 49°
2026-05-03 22:18 -33.57406 -56.80032 30947 ft 519 kts 49°
2026-05-03 22:18 -33.55070 -56.76759 31249 ft 519 kts 49°
2026-05-03 22:18 -33.52736 -56.73491 31513 ft 519 kts 49°
2026-05-03 22:18 -33.50391 -56.70209 31722 ft 520 kts 49°
2026-05-03 22:19 -33.48042 -56.66925 31897 ft 522 kts 49°
2026-05-03 22:19 -33.45672 -56.63615 32089 ft 523 kts 49°
2026-05-03 22:19 -33.43325 -56.60339 32299 ft 523 kts 49°
2026-05-03 22:19 -33.40932 -56.57003 32521 ft 524 kts 49°
2026-05-03 22:20 -33.38579 -56.53726 32735 ft 524 kts 49°
2026-05-03 22:20 -33.36237 -56.50417 32908 ft 525 kts 51°
2026-05-03 22:20 -33.34007 -56.46943 33059 ft 527 kts 55°
2026-05-03 22:21 -33.29758 -56.39801 33125 ft 528 kts 56°
2026-05-03 22:21 -33.25529 -56.32658 33122 ft 528 kts 55°
2026-05-03 22:22 -33.21269 -56.25497 33125 ft 529 kts 54°
2026-05-03 22:22 -33.16999 -56.18343 33125 ft 529 kts 55°
2026-05-03 22:23 -33.12727 -56.11205 33128 ft 529 kts 55°
2026-05-03 22:23 -33.08457 -56.04081 33131 ft 528 kts 55°
2026-05-03 22:24 -33.04216 -55.97021 33130 ft 526 kts 55°
2026-05-03 22:24 -32.99939 -55.89913 33132 ft 527 kts 55°
2026-05-03 22:25 -32.95674 -55.82835 33129 ft 528 kts 54°
2026-05-03 22:25 -32.91405 -55.75767 33133 ft 528 kts 54°
2026-05-03 22:26 -32.87130 -55.68706 33134 ft 528 kts 54°
2026-05-03 22:26 -32.82838 -55.61632 33133 ft 528 kts 54°
2026-05-03 22:27 -32.78542 -55.54561 33137 ft 527 kts 54°
2026-05-03 22:27 -32.74243 -55.47498 33135 ft 528 kts 54°
2026-05-03 22:28 -32.69963 -55.40482 33137 ft 527 kts 54°
2026-05-03 22:28 -32.65673 -55.33462 33138 ft 527 kts 53°
2026-05-03 22:29 -32.61375 -55.26438 33140 ft 526 kts 52°
2026-05-03 22:29 -32.57078 -55.19434 33141 ft 525 kts 52°
2026-05-03 22:30 -32.52804 -55.12479 33143 ft 525 kts 52°
2026-05-03 22:30 -32.48500 -55.05489 33144 ft 525 kts 52°
2026-05-03 22:31 -32.44184 -54.98490 33148 ft 525 kts 52°
2026-05-03 22:31 -32.39884 -54.91531 33149 ft 525 kts 52°
2026-05-03 22:32 -32.35584 -54.84586 33148 ft 525 kts 52°
2026-05-03 22:32 -32.31287 -54.77658 33149 ft 524 kts 52°
2026-05-03 22:33 -32.26984 -54.70733 33151 ft 524 kts 52°
2026-05-03 22:33 -32.22656 -54.63782 33148 ft 524 kts 53°
2026-05-03 22:34 -32.18344 -54.56865 33150 ft 523 kts 52°
2026-05-03 22:34 -32.14050 -54.49990 33151 ft 523 kts 52°
2026-05-03 22:35 -32.09735 -54.43096 33146 ft 523 kts 53°
2026-05-03 22:35 -32.05438 -54.36245 33150 ft 522 kts 53°
2026-05-03 22:36 -32.01118 -54.29363 33149 ft 522 kts 52°
2026-05-03 22:36 -31.96800 -54.22504 33148 ft 522 kts 52°
2026-05-03 22:37 -31.92477 -54.15644 33155 ft 523 kts 52°
2026-05-03 22:37 -31.88166 -54.08821 33159 ft 523 kts 52°
2026-05-03 22:38 -31.83824 -54.01954 33159 ft 523 kts 52°
2026-05-03 22:38 -31.79475 -53.95090 33149 ft 523 kts 52°
2026-05-03 22:39 -31.75149 -53.88275 33152 ft 523 kts 52°
2026-05-03 22:39 -31.70796 -53.81431 33155 ft 522 kts 52°
2026-05-03 22:40 -31.66469 -53.74639 33152 ft 523 kts 52°
2026-05-03 22:40 -31.62109 -53.67811 33153 ft 523 kts 52°
2026-05-03 22:41 -31.57750 -53.60991 33149 ft 523 kts 51°
2026-05-03 22:41 -31.53406 -53.54207 33155 ft 523 kts 51°
2026-05-03 22:42 -31.49027 -53.47385 33151 ft 523 kts 51°
2026-05-03 22:42 -31.44659 -53.40591 33154 ft 523 kts 51°
2026-05-03 22:43 -31.40305 -53.33824 33153 ft 523 kts 51°
2026-05-03 22:43 -31.35914 -53.27017 33151 ft 523 kts 50°
2026-05-03 22:44 -31.31539 -53.20249 33151 ft 523 kts 50°
2026-05-03 22:44 -31.27132 -53.13439 33157 ft 524 kts 50°
2026-05-03 22:45 -31.22757 -53.06695 33166 ft 524 kts 50°
2026-05-03 22:45 -31.18349 -52.99907 33168 ft 524 kts 50°
2026-05-03 22:46 -31.13946 -52.93139 33169 ft 525 kts 50°
2026-05-03 22:46 -31.09558 -52.86409 33168 ft 524 kts 50°
2026-05-03 22:47 -31.05141 -52.79646 33163 ft 524 kts 50°
2026-05-03 22:47 -31.00730 -52.72900 33169 ft 523 kts 50°
2026-05-03 22:48 -30.96305 -52.66147 33158 ft 524 kts 50°
2026-05-03 22:48 -30.91891 -52.59421 33166 ft 524 kts 50°
2026-05-03 22:49 -30.87466 -52.52692 33166 ft 524 kts 50°
2026-05-03 22:49 -30.83044 -52.45977 33170 ft 524 kts 50°
2026-05-03 22:50 -30.78622 -52.39274 33156 ft 524 kts 50°
2026-05-03 22:50 -30.74179 -52.32548 33166 ft 525 kts 49°
2026-05-03 22:51 -30.69744 -52.25849 33164 ft 524 kts 49°
2026-05-03 22:51 -30.65328 -52.19190 33161 ft 524 kts 49°
2026-05-03 22:52 -30.60881 -52.12494 33162 ft 525 kts 49°
2026-05-03 22:52 -30.56427 -52.05800 33157 ft 524 kts 49°
2026-05-03 22:53 -30.51979 -51.99125 33169 ft 524 kts 49°
2026-05-03 22:53 -30.47537 -51.92468 33172 ft 524 kts 49°
2026-05-03 22:54 -30.43077 -51.85798 33171 ft 524 kts 49°
2026-05-03 22:54 -30.38612 -51.79131 33166 ft 524 kts 49°
2026-05-03 22:55 -30.34141 -51.72468 33170 ft 524 kts 49°
2026-05-03 22:55 -30.29670 -51.65816 33175 ft 525 kts 49°
2026-05-03 22:56 -30.25181 -51.59145 33171 ft 525 kts 49°
2026-05-03 22:56 -30.20728 -51.52541 33177 ft 524 kts 49°
2026-05-03 22:57 -30.16236 -51.45890 33173 ft 524 kts 49°
2026-05-03 22:57 -30.11769 -51.39286 33171 ft 524 kts 49°
2026-05-03 22:58 -30.07296 -51.32682 33173 ft 524 kts 49°
2026-05-03 22:58 -30.02814 -51.26078 33178 ft 524 kts 49°
2026-05-03 22:59 -29.98312 -51.19451 33175 ft 524 kts 49°
2026-05-03 22:59 -29.93793 -51.12854 33181 ft 524 kts 47°
2026-05-03 23:00 -29.89147 -51.06464 33179 ft 523 kts 46°
2026-05-03 23:00 -29.84453 -51.00080 33176 ft 523 kts 46°
2026-05-03 23:01 -29.79765 -50.93677 33186 ft 523 kts 46°
2026-05-03 23:01 -29.75106 -50.87304 33177 ft 523 kts 47°
2026-05-03 23:02 -29.70408 -50.80887 33186 ft 523 kts 47°
2026-05-03 23:02 -29.65721 -50.74489 33182 ft 523 kts 46°
2026-05-03 23:03 -29.61067 -50.68152 33179 ft 524 kts 47°
2026-05-03 23:03 -29.56375 -50.61770 33188 ft 523 kts 47°
2026-05-03 23:04 -29.51613 -50.55428 33188 ft 521 kts 43°
2026-05-03 23:04 -29.46655 -50.49397 33187 ft 522 kts 43°
2026-05-03 23:05 -29.41637 -50.43339 33195 ft 522 kts 43°
2026-05-03 23:05 -29.36681 -50.37350 33188 ft 522 kts 43°
2026-05-03 23:06 -29.31687 -50.31316 33184 ft 521 kts 42°
2026-05-03 23:06 -29.26701 -50.25304 33196 ft 522 kts 42°
2026-05-03 23:07 -29.21673 -50.19248 33202 ft 523 kts 43°
2026-05-03 23:07 -29.16668 -50.13231 33189 ft 524 kts 43°
2026-05-03 23:08 -29.11668 -50.07223 33212 ft 523 kts 43°
2026-05-03 23:08 -29.06651 -50.01208 33200 ft 524 kts 43°
2026-05-03 23:09 -29.01621 -49.95187 33211 ft 525 kts 43°
2026-05-03 23:09 -28.96573 -49.89146 33215 ft 524 kts 43°
2026-05-03 23:10 -28.91566 -49.83168 33220 ft 522 kts 42°
2026-05-03 23:10 -28.86625 -49.77129 33225 ft 524 kts 44°
2026-05-03 23:11 -28.81726 -49.70911 33233 ft 525 kts 44°
2026-05-03 23:11 -28.76849 -49.64740 33243 ft 525 kts 44°
2026-05-03 23:12 -28.71975 -49.58606 33230 ft 525 kts 44°
2026-05-03 23:12 -28.67071 -49.52452 33229 ft 526 kts 44°
2026-05-03 23:13 -28.62159 -49.46295 33230 ft 526 kts 44°
2026-05-03 23:13 -28.57240 -49.40143 33232 ft 526 kts 44°
2026-05-03 23:14 -28.52315 -49.33993 33236 ft 526 kts 44°
2026-05-03 23:14 -28.47390 -49.27847 33230 ft 526 kts 44°
2026-05-03 23:15 -28.42473 -49.21727 33222 ft 526 kts 43°
2026-05-03 23:15 -28.37561 -49.15622 33234 ft 527 kts 44°
2026-05-03 23:16 -28.32604 -49.09465 33229 ft 527 kts 43°
2026-05-03 23:16 -28.27685 -49.03366 33223 ft 527 kts 44°
2026-05-03 23:17 -28.22755 -48.97190 33228 ft 527 kts 44°
2026-05-03 23:17 -28.17866 -48.91049 33227 ft 527 kts 44°
2026-05-03 23:18 -28.12944 -48.84885 33227 ft 528 kts 44°
2026-05-03 23:18 -28.08036 -48.78748 33228 ft 528 kts 44°
2026-05-03 23:19 -28.03090 -48.72574 33233 ft 528 kts 44°
2026-05-03 23:19 -27.98175 -48.66447 33229 ft 529 kts 44°
2026-05-03 23:20 -27.93235 -48.60296 33231 ft 529 kts 44°
2026-05-03 23:20 -27.88287 -48.54146 33229 ft 529 kts 44°
2026-05-03 23:21 -27.83329 -48.47989 33226 ft 529 kts 44°
2026-05-03 23:21 -27.78376 -48.41851 33227 ft 529 kts 44°
2026-05-03 23:22 -27.70959 -48.32671 33225 ft 528 kts 43°
2026-05-03 23:22 -27.65996 -48.26545 33221 ft 528 kts 43°
2026-05-03 23:23 -27.61043 -48.20440 33222 ft 528 kts 43°
2026-05-03 23:23 -27.56094 -48.14347 33217 ft 529 kts 43°
2026-05-03 23:24 -27.51127 -48.08237 33225 ft 530 kts 43°
2026-05-03 23:24 -27.46177 -48.02158 33220 ft 530 kts 43°
2026-05-03 23:25 -27.41187 -47.96036 33226 ft 530 kts 43°
2026-05-03 23:25 -27.36209 -47.89957 33228 ft 530 kts 43°
2026-05-03 23:26 -27.31204 -47.83897 33225 ft 530 kts 42°
2026-05-03 23:26 -27.26194 -47.77841 33223 ft 531 kts 42°
2026-05-03 23:27 -27.21154 -47.71749 33223 ft 531 kts 43°
2026-05-03 23:27 -27.16149 -47.65707 33219 ft 531 kts 42°
2026-05-03 23:28 -27.11124 -47.59648 33221 ft 531 kts 42°
2026-05-03 23:28 -27.06092 -47.53587 33216 ft 531 kts 42°
2026-05-03 23:29 -27.01055 -47.47531 33217 ft 531 kts 42°
2026-05-03 23:29 -26.96011 -47.41479 33212 ft 531 kts 42°
2026-05-03 23:30 -26.90975 -47.35439 33205 ft 532 kts 42°
2026-05-03 23:30 -26.85945 -47.29420 33201 ft 532 kts 41°
2026-05-03 23:31 -26.80865 -47.23352 33202 ft 532 kts 41°
2026-05-03 23:31 -26.75828 -47.17339 33200 ft 533 kts 41°
2026-05-03 23:32 -26.70739 -47.11279 33203 ft 534 kts 41°
2026-05-03 23:32 -26.65677 -47.05277 33205 ft 534 kts 41°
2026-05-03 23:33 -26.60567 -46.99221 33210 ft 534 kts 41°
2026-05-03 23:33 -26.55472 -46.93215 33207 ft 535 kts 40°
2026-05-03 23:34 -26.50327 -46.87176 33206 ft 536 kts 40°
2026-05-03 23:34 -26.45190 -46.81147 33214 ft 536 kts 40°
2026-05-03 23:35 -26.40052 -46.75124 33210 ft 538 kts 40°
2026-05-03 23:35 -26.34906 -46.69103 33213 ft 538 kts 40°
2026-05-03 23:36 -26.29725 -46.63050 33208 ft 539 kts 40°
2026-05-03 23:36 -26.24556 -46.57016 33208 ft 540 kts 40°
2026-05-03 23:37 -26.19397 -46.51001 33209 ft 541 kts 40°
2026-05-03 23:37 -26.14187 -46.44936 33207 ft 541 kts 40°
2026-05-03 23:38 -26.08984 -46.38886 33202 ft 540 kts 40°
2026-05-03 23:38 -26.03794 -46.32863 33201 ft 542 kts 40°
2026-05-03 23:39 -25.98554 -46.26791 33207 ft 543 kts 40°
2026-05-03 23:39 -25.93353 -46.20765 33206 ft 543 kts 40°
2026-05-03 23:40 -25.88121 -46.14716 33211 ft 543 kts 39°
2026-05-03 23:40 -25.82900 -46.08688 33214 ft 541 kts 39°
2026-05-03 23:41 -25.77700 -46.02692 33212 ft 542 kts 39°
2026-05-03 23:41 -25.72451 -45.96648 33207 ft 541 kts 39°
2026-05-03 23:42 -25.67250 -45.90665 33205 ft 541 kts 39°
2026-05-03 23:42 -25.62002 -45.84644 33211 ft 541 kts 39°
2026-05-03 23:43 -25.56786 -45.78667 33209 ft 542 kts 39°
2026-05-03 23:43 -25.51571 -45.72698 33212 ft 541 kts 39°
2026-05-03 23:44 -25.46315 -45.66689 33201 ft 541 kts 39°
2026-05-03 23:44 -25.41094 -45.60727 33215 ft 540 kts 39°
2026-05-03 23:45 -25.35872 -45.54773 33207 ft 540 kts 39°
2026-05-03 23:45 -25.30637 -45.48814 33223 ft 540 kts 39°
2026-05-03 23:46 -25.25418 -45.42878 33214 ft 540 kts 39°
2026-05-03 23:46 -25.20192 -45.36941 33216 ft 539 kts 39°
2026-05-03 23:47 -25.14991 -45.31041 33220 ft 538 kts 39°
2026-05-03 23:47 -25.09767 -45.25124 33217 ft 538 kts 39°
2026-05-03 23:48 -25.04536 -45.19208 33207 ft 538 kts 38°
2026-05-03 23:48 -24.99327 -45.13319 33216 ft 537 kts 39°
2026-05-03 23:49 -24.94129 -45.07455 33219 ft 536 kts 38°
2026-05-03 23:49 -24.88928 -45.01596 33220 ft 536 kts 38°
2026-05-03 23:50 -24.83723 -44.95736 33221 ft 534 kts 38°
2026-05-03 23:50 -24.78525 -44.89895 33223 ft 535 kts 39°
2026-05-03 23:51 -24.73319 -44.84050 33222 ft 534 kts 38°
2026-05-03 23:51 -24.68138 -44.78239 33221 ft 532 kts 38°
2026-05-03 23:52 -24.62946 -44.72425 33219 ft 531 kts 38°
2026-05-03 23:52 -24.57793 -44.66659 33222 ft 530 kts 38°
2026-05-03 23:53 -24.52626 -44.60886 33220 ft 530 kts 38°
2026-05-03 23:53 -24.47437 -44.55121 33222 ft 529 kts 38°
2026-05-03 23:54 -24.42244 -44.49462 33219 ft 529 kts 38°
2026-05-03 23:54 -24.37009 -44.43761 33220 ft 527 kts 38°
2026-05-03 23:55 -24.31813 -44.38105 33222 ft 526 kts 37°
2026-05-03 23:55 -24.26644 -44.32485 33213 ft 527 kts 37°
2026-05-03 23:56 -24.21440 -44.26829 33219 ft 526 kts 37°
2026-05-03 23:56 -24.16252 -44.21199 33219 ft 526 kts 37°
2026-05-03 23:57 -24.11056 -44.15564 33216 ft 526 kts 37°
2026-05-03 23:57 -24.05864 -44.09940 33219 ft 525 kts 37°
2026-05-03 23:58 -24.00683 -44.04335 33218 ft 524 kts 37°
2026-05-03 23:58 -23.95508 -43.98749 33218 ft 523 kts 37°
2026-05-03 23:59 -23.90324 -43.93161 33216 ft 524 kts 37°
2026-05-03 23:59 -23.85110 -43.87545 33213 ft 524 kts 37°
2026-05-04 00:00 -23.79932 -43.81972 33212 ft 525 kts 37°
2026-05-04 00:00 -23.74734 -43.76378 33206 ft 523 kts 37°
2026-05-04 00:01 -23.69546 -43.70807 33215 ft 522 kts 37°
2026-05-04 00:01 -23.64370 -43.65257 33214 ft 522 kts 37°
2026-05-04 00:02 -23.59265 -43.59625 33223 ft 524 kts 39°
2026-05-04 00:02 -23.54235 -43.53862 33215 ft 527 kts 39°
2026-05-04 00:03 -23.49191 -43.48120 33220 ft 527 kts 39°
2026-05-04 00:03 -23.44122 -43.42319 33218 ft 526 kts 40°
2026-05-04 00:04 -23.39101 -43.36537 33221 ft 528 kts 40°
2026-05-04 00:04 -23.34060 -43.30736 33220 ft 526 kts 39°
2026-05-04 00:05 -23.29032 -43.25000 33220 ft 526 kts 39°
2026-05-04 00:05 -23.23906 -43.19292 33216 ft 525 kts 38°
2026-05-04 00:06 -23.18817 -43.13643 33221 ft 525 kts 39°
2026-05-04 00:06 -23.13716 -43.07971 33219 ft 525 kts 39°
2026-05-04 00:07 -23.08599 -43.02285 33216 ft 526 kts 39°
2026-05-04 00:07 -23.03482 -42.96599 33213 ft 524 kts 39°
2026-05-04 00:08 -22.98474 -42.90876 33213 ft 527 kts 43°
2026-05-04 00:08 -22.93985 -42.84594 33223 ft 534 kts 50°
2026-05-04 00:09 -22.89949 -42.77832 33215 ft 534 kts 52°
2026-05-04 00:09 -22.85949 -42.71051 33217 ft 534 kts 52°
2026-05-04 00:10 -22.81935 -42.64321 33214 ft 533 kts 52°
2026-05-04 00:10 -22.77893 -42.57572 33216 ft 533 kts 52°
2026-05-04 00:11 -22.73876 -42.50868 33214 ft 532 kts 52°
2026-05-04 00:11 -22.69849 -42.44148 33209 ft 532 kts 52°
2026-05-04 00:12 -22.65816 -42.37430 33205 ft 531 kts 52°
2026-05-04 00:12 -22.61754 -42.30809 33209 ft 528 kts 48°
2026-05-04 00:13 -22.57169 -42.24696 33207 ft 522 kts 41°
2026-05-04 00:13 -22.51981 -42.19250 33208 ft 516 kts 34°
2026-05-04 00:14 -22.46492 -42.14319 33212 ft 514 kts 33°
2026-05-04 00:14 -22.40962 -42.09381 33213 ft 513 kts 33°
2026-05-04 00:15 -22.35465 -42.04452 33214 ft 514 kts 33°
2026-05-04 00:15 -22.30004 -41.99546 33209 ft 513 kts 33°
2026-05-04 00:16 -22.24516 -41.94621 33204 ft 513 kts 33°
2026-05-04 00:16 -22.19037 -41.89711 33206 ft 513 kts 33°
2026-05-04 00:17 -22.13516 -41.84769 33202 ft 514 kts 33°
2026-05-04 00:17 -22.08025 -41.79861 33200 ft 514 kts 33°
2026-05-04 00:18 -22.02520 -41.74942 33202 ft 514 kts 34°
2026-05-04 00:18 -21.97037 -41.70049 33199 ft 513 kts 34°
2026-05-04 00:19 -21.91540 -41.65151 33207 ft 514 kts 34°
2026-05-04 00:19 -21.86038 -41.60258 33209 ft 513 kts 34°
2026-05-04 00:20 -21.80534 -41.55364 33211 ft 513 kts 34°
2026-05-04 00:20 -21.75027 -41.50472 33207 ft 513 kts 34°
2026-05-04 00:21 -21.69541 -41.45603 33194 ft 513 kts 34°
2026-05-04 00:21 -21.64054 -41.40739 33190 ft 512 kts 34°
2026-05-04 00:22 -21.58548 -41.35861 33188 ft 513 kts 34°
2026-05-04 00:22 -21.53041 -41.30986 33186 ft 512 kts 33°
2026-05-04 00:23 -21.47545 -41.26127 33187 ft 512 kts 34°
2026-05-04 00:23 -21.42030 -41.21254 33185 ft 512 kts 34°
2026-05-04 00:24 -21.36551 -41.16418 33186 ft 512 kts 34°
2026-05-04 00:24 -21.31045 -41.11560 33185 ft 511 kts 34°
2026-05-04 00:25 -21.25585 -41.06757 33182 ft 511 kts 34°
2026-05-04 00:25 -21.20070 -41.01911 33180 ft 511 kts 34°
2026-05-04 00:26 -21.14594 -40.97102 33177 ft 511 kts 34°
2026-05-04 00:26 -21.09094 -40.92274 33177 ft 510 kts 34°
2026-05-04 00:27 -21.03607 -40.87464 33176 ft 510 kts 34°
2026-05-04 00:27 -20.98137 -40.82673 33175 ft 510 kts 34°
2026-05-04 00:28 -20.92646 -40.77867 33175 ft 509 kts 34°
2026-05-04 00:28 -20.87171 -40.73080 33178 ft 509 kts 34°
2026-05-04 00:29 -20.81681 -40.68319 33175 ft 508 kts 32°
2026-05-04 00:29 -20.75895 -40.63982 33178 ft 505 kts 28°
2026-05-04 00:30 -20.70060 -40.59827 33177 ft 504 kts 28°
2026-05-04 00:30 -20.64221 -40.55671 33168 ft 505 kts 28°
2026-05-04 00:31 -20.58386 -40.51513 33167 ft 505 kts 28°
2026-05-04 00:31 -20.52554 -40.47361 33162 ft 505 kts 29°
2026-05-04 00:32 -20.46709 -40.43199 33162 ft 504 kts 28°
2026-05-04 00:32 -20.40869 -40.39046 33158 ft 504 kts 28°
2026-05-04 00:33 -20.32142 -40.32847 33152 ft 503 kts 28°
2026-05-04 00:34 -20.26432 -40.28477 33147 ft 507 kts 34°
2026-05-04 00:34 -20.21166 -40.23448 33143 ft 512 kts 40°
2026-05-04 00:35 -20.16113 -40.18105 33146 ft 511 kts 40°
2026-05-04 00:35 -20.11083 -40.12785 33141 ft 511 kts 40°
2026-05-04 00:36 -20.06042 -40.07474 33141 ft 510 kts 40°
2026-05-04 00:36 -20.00995 -40.02164 33142 ft 509 kts 40°
2026-05-04 00:37 -19.95948 -39.96865 33135 ft 509 kts 40°
2026-05-04 00:37 -19.90904 -39.91576 33136 ft 510 kts 40°
2026-05-04 00:38 -19.85861 -39.86291 33131 ft 510 kts 40°
2026-05-04 00:38 -19.80837 -39.81027 33127 ft 510 kts 40°
2026-05-04 00:39 -19.75804 -39.75742 33122 ft 510 kts 41°
2026-05-04 00:39 -19.70791 -39.70407 33115 ft 510 kts 41°
2026-05-04 00:40 -19.65776 -39.65067 33118 ft 509 kts 41°
2026-05-04 00:40 -19.60794 -39.59774 33112 ft 509 kts 41°
2026-05-04 00:41 -19.55791 -39.54465 33111 ft 509 kts 41°
2026-05-04 00:41 -19.50781 -39.49154 33107 ft 509 kts 41°
2026-05-04 00:42 -19.45778 -39.43856 33104 ft 509 kts 41°
2026-05-04 00:42 -19.40765 -39.38551 33101 ft 509 kts 41°
2026-05-04 00:43 -19.35759 -39.33259 33092 ft 509 kts 41°
2026-05-04 00:43 -19.30756 -39.27973 33091 ft 509 kts 41°
2026-05-04 00:44 -19.25756 -39.22697 33089 ft 509 kts 41°
2026-05-04 00:44 -19.20749 -39.17418 33086 ft 509 kts 41°
2026-05-04 00:45 -19.15735 -39.12136 33087 ft 509 kts 41°
2026-05-04 00:45 -19.10711 -39.06834 33080 ft 509 kts 41°
2026-05-04 00:46 -19.05733 -39.01543 33080 ft 510 kts 41°
2026-05-04 00:46 -19.00727 -38.96226 33075 ft 509 kts 41°
2026-05-04 00:47 -18.95720 -38.90915 33075 ft 508 kts 41°
2026-05-04 00:47 -18.90733 -38.85633 33075 ft 508 kts 41°
2026-05-04 00:48 -18.85749 -38.80357 33074 ft 508 kts 41°
2026-05-04 00:48 -18.80770 -38.75093 33074 ft 508 kts 42°
2026-05-04 00:49 -18.75773 -38.69814 33074 ft 507 kts 42°
2026-05-04 00:49 -18.70798 -38.64561 33075 ft 508 kts 42°
2026-05-04 00:50 -18.65805 -38.59293 33075 ft 507 kts 42°
2026-05-04 00:50 -18.60842 -38.54061 33075 ft 506 kts 42°
2026-05-04 00:51 -18.55854 -38.48825 33075 ft 506 kts 41°
2026-05-04 00:51 -18.50834 -38.43588 33075 ft 505 kts 41°
2026-05-04 00:52 -18.45853 -38.38394 33075 ft 505 kts 41°
2026-05-04 00:52 -18.40854 -38.33183 33073 ft 505 kts 41°
2026-05-04 00:53 -18.35864 -38.27985 33074 ft 506 kts 41°
2026-05-04 00:53 -18.30889 -38.22803 33075 ft 505 kts 41°
2026-05-04 00:54 -18.25901 -38.17614 33075 ft 504 kts 41°
2026-05-04 00:54 -18.20903 -38.12420 33075 ft 503 kts 41°
2026-05-04 00:55 -18.15920 -38.07246 33075 ft 503 kts 42°
2026-05-04 00:55 -18.10953 -38.02092 33075 ft 503 kts 42°
2026-05-04 00:56 -18.05965 -37.96919 33075 ft 504 kts 42°
2026-05-04 00:56 -18.00958 -37.91732 33075 ft 505 kts 42°
2026-05-04 00:57 -17.95984 -37.86585 33075 ft 504 kts 42°
2026-05-04 00:57 -17.90981 -37.81414 33075 ft 503 kts 42°
2026-05-04 00:58 -17.85977 -37.76249 33076 ft 502 kts 42°
2026-05-04 00:58 -17.80995 -37.71108 33075 ft 502 kts 42°
2026-05-04 00:59 -17.76031 -37.65992 33075 ft 502 kts 42°
2026-05-04 00:59 -17.71047 -37.60858 33075 ft 502 kts 42°
2026-05-04 01:00 -17.66061 -37.55726 33075 ft 502 kts 42°
2026-05-04 01:00 -17.61086 -37.50608 33075 ft 502 kts 42°
2026-05-04 01:01 -17.56090 -37.45472 33075 ft 502 kts 42°
2026-05-04 01:01 -17.51118 -37.40367 33075 ft 501 kts 42°
2026-05-04 01:02 -17.46129 -37.35248 33075 ft 501 kts 42°
2026-05-04 01:02 -17.41169 -37.30162 33075 ft 501 kts 42°
2026-05-04 01:03 -17.36202 -37.25073 33075 ft 501 kts 41°
2026-05-04 01:03 -17.31210 -37.19965 33075 ft 500 kts 42°
2026-05-04 01:04 -17.26230 -37.14872 33075 ft 501 kts 42°
2026-05-04 01:04 -17.21257 -37.09790 33075 ft 500 kts 42°
2026-05-04 01:05 -17.16300 -37.04728 33075 ft 499 kts 42°
2026-05-04 01:05 -17.11332 -36.99657 33075 ft 499 kts 42°
2026-05-04 01:06 -17.06371 -36.94599 33075 ft 498 kts 42°
2026-05-04 01:06 -17.01378 -36.89513 33074 ft 499 kts 42°
2026-05-04 01:07 -16.96397 -36.84443 33075 ft 500 kts 42°
2026-05-04 01:07 -16.91415 -36.79375 33075 ft 500 kts 42°
2026-05-04 01:08 -16.86448 -36.74327 33075 ft 499 kts 42°
2026-05-04 01:08 -16.81463 -36.69264 33073 ft 498 kts 42°
2026-05-04 01:09 -16.76491 -36.64217 33072 ft 498 kts 42°
2026-05-04 01:09 -16.71531 -36.59189 33071 ft 498 kts 42°
2026-05-04 01:10 -16.66570 -36.54163 33069 ft 497 kts 42°
2026-05-04 01:10 -16.61636 -36.49167 33068 ft 497 kts 42°
2026-05-04 01:11 -16.56657 -36.44129 33067 ft 497 kts 42°
2026-05-04 01:11 -16.51731 -36.39149 33066 ft 496 kts 42°
2026-05-04 01:12 -16.46752 -36.34119 33063 ft 495 kts 42°
2026-05-04 01:12 -16.41814 -36.29135 33061 ft 495 kts 42°
2026-05-04 01:13 -16.36870 -36.24149 33057 ft 494 kts 42°
2026-05-04 01:13 -16.31931 -36.19170 33055 ft 494 kts 42°
2026-05-04 01:14 -16.26987 -36.14190 33055 ft 494 kts 42°
2026-05-04 01:14 -16.22049 -36.09220 33054 ft 494 kts 42°
2026-05-04 01:15 -16.17139 -36.04283 33054 ft 494 kts 42°
2026-05-04 01:15 -16.12202 -35.99321 33054 ft 493 kts 42°
2026-05-04 01:16 -16.07273 -35.94372 33054 ft 493 kts 42°
2026-05-04 01:16 -16.02326 -35.89409 33052 ft 492 kts 43°
2026-05-04 01:17 -15.97407 -35.84477 33048 ft 491 kts 43°
2026-05-04 01:17 -15.92473 -35.79531 33047 ft 492 kts 43°
2026-05-04 01:18 -15.87575 -35.74626 33046 ft 492 kts 43°
2026-05-04 01:18 -15.82624 -35.69672 33043 ft 492 kts 43°
2026-05-04 01:19 -15.77703 -35.64752 33043 ft 493 kts 43°
2026-05-04 01:19 -15.72772 -35.59826 33039 ft 492 kts 43°
2026-05-04 01:20 -15.67823 -35.54884 33039 ft 492 kts 43°
2026-05-04 01:20 -15.62907 -35.49979 33038 ft 492 kts 43°
2026-05-04 01:21 -15.57974 -35.45060 33041 ft 492 kts 43°
2026-05-04 01:21 -15.53028 -35.40132 33042 ft 491 kts 43°
2026-05-04 01:22 -15.48109 -35.35234 33039 ft 491 kts 43°
2026-05-04 01:22 -15.43215 -35.30365 33037 ft 491 kts 43°
2026-05-04 01:23 -15.38279 -35.25457 33035 ft 491 kts 43°
2026-05-04 01:23 -15.33335 -35.20546 33035 ft 491 kts 43°
2026-05-04 01:24 -15.28407 -35.15652 33037 ft 491 kts 43°
2026-05-04 01:24 -15.23489 -35.10771 33034 ft 491 kts 43°
2026-05-04 01:25 -15.18570 -35.05894 33037 ft 490 kts 43°
2026-05-04 01:25 -15.13636 -35.01006 33035 ft 490 kts 43°
2026-05-04 01:26 -15.08712 -34.96129 33034 ft 490 kts 43°
2026-05-04 01:26 -15.03781 -34.91250 33034 ft 490 kts 43°
2026-05-04 01:27 -14.98859 -34.86383 33033 ft 490 kts 43°
2026-05-04 01:27 -14.93925 -34.81506 33031 ft 490 kts 43°
2026-05-04 01:28 -14.89012 -34.76655 33026 ft 490 kts 43°
2026-05-04 01:28 -14.84080 -34.71786 33030 ft 490 kts 43°
2026-05-04 01:29 -14.79145 -34.66920 33027 ft 490 kts 43°
2026-05-04 01:29 -14.74202 -34.62048 33027 ft 490 kts 43°
2026-05-04 01:30 -14.69261 -34.57182 33021 ft 491 kts 43°
2026-05-04 01:30 -14.64338 -34.52335 33024 ft 491 kts 43°
2026-05-04 01:31 -14.59386 -34.47464 33023 ft 491 kts 43°
2026-05-04 01:31 -14.54441 -34.42604 33023 ft 492 kts 43°
2026-05-04 01:32 -14.49468 -34.37718 33020 ft 492 kts 43°
2026-05-04 01:32 -14.44517 -34.32857 33020 ft 492 kts 43°
2026-05-04 01:33 -14.39590 -34.28022 33020 ft 491 kts 43°
2026-05-04 01:33 -14.34624 -34.23153 33019 ft 491 kts 43°
2026-05-04 01:34 -14.29650 -34.18279 33019 ft 491 kts 43°
2026-05-04 01:34 -14.24725 -34.13456 33018 ft 491 kts 43°
2026-05-04 01:35 -14.19774 -34.08610 33017 ft 491 kts 43°
2026-05-04 01:35 -14.14806 -34.03753 33014 ft 491 kts 43°
2026-05-04 01:36 -14.09849 -33.98911 33015 ft 491 kts 43°
2026-05-04 01:36 -14.04903 -33.94080 33014 ft 491 kts 43°
2026-05-04 01:37 -13.99919 -33.89214 33011 ft 492 kts 43°
2026-05-04 01:37 -13.94950 -33.84370 33012 ft 491 kts 43°
2026-05-04 01:38 -13.90002 -33.79548 33013 ft 491 kts 43°
2026-05-04 01:38 -13.85045 -33.74719 33012 ft 491 kts 43°
2026-05-04 01:39 -13.80068 -33.69874 33013 ft 492 kts 43°
2026-05-04 01:39 -13.75093 -33.65032 33012 ft 492 kts 43°
2026-05-04 01:40 -13.70153 -33.60228 33013 ft 491 kts 43°
2026-05-04 01:40 -13.65178 -33.55394 33013 ft 492 kts 43°
2026-05-04 01:41 -13.60192 -33.50553 33013 ft 492 kts 43°
2026-05-04 01:41 -13.55223 -33.45729 33013 ft 492 kts 43°
2026-05-04 01:42 -13.50261 -33.40916 33013 ft 491 kts 43°
2026-05-04 01:42 -13.45295 -33.36102 33013 ft 491 kts 43°
2026-05-04 01:43 -13.40325 -33.31287 33012 ft 491 kts 43°
2026-05-04 01:43 -13.35343 -33.26463 33013 ft 491 kts 43°
2026-05-04 01:44 -13.30369 -33.21648 33013 ft 490 kts 43°
2026-05-04 01:44 -13.25426 -33.16869 33012 ft 490 kts 43°
2026-05-04 01:45 -13.20442 -33.12053 33013 ft 491 kts 43°
2026-05-04 01:45 -13.13006 -33.04870 33013 ft 490 kts 43°
2026-05-04 01:46 -13.08044 -33.00081 33013 ft 490 kts 43°
2026-05-04 01:46 -13.03074 -32.95285 33009 ft 490 kts 43°
2026-05-04 01:47 -12.98113 -32.90503 33009 ft 489 kts 43°
2026-05-04 01:47 -12.93150 -32.85724 33011 ft 490 kts 43°
2026-05-04 01:48 -12.88189 -32.80947 33008 ft 491 kts 43°
2026-05-04 01:48 -12.83213 -32.76158 33006 ft 491 kts 43°
2026-05-04 01:49 -12.78219 -32.71354 33003 ft 491 kts 43°
2026-05-04 01:49 -12.73249 -32.66576 33005 ft 491 kts 43°
2026-05-04 01:50 -12.68259 -32.61782 33001 ft 491 kts 43°
2026-05-04 01:50 -12.63279 -32.56999 32997 ft 492 kts 43°
2026-05-04 01:51 -12.58294 -32.52216 32995 ft 492 kts 43°
2026-05-04 01:51 -12.53313 -32.47440 32996 ft 492 kts 43°
2026-05-04 01:52 -12.48282 -32.42617 32993 ft 492 kts 43°
2026-05-04 01:52 -12.43280 -32.37825 32994 ft 493 kts 43°
2026-05-04 01:53 -12.38291 -32.33048 32992 ft 493 kts 43°
2026-05-04 01:53 -12.33274 -32.28247 32992 ft 493 kts 43°
2026-05-04 01:54 -12.28260 -32.23451 32994 ft 493 kts 43°
2026-05-04 01:54 -12.23251 -32.18662 32991 ft 493 kts 43°
2026-05-04 01:55 -12.18246 -32.13879 32992 ft 493 kts 43°
2026-05-04 01:55 -12.13231 -32.09092 32992 ft 493 kts 43°
2026-05-04 01:56 -12.08219 -32.04310 32992 ft 494 kts 43°
2026-05-04 01:56 -12.03221 -31.99542 32992 ft 494 kts 43°
2026-05-04 01:57 -11.98177 -31.94734 32993 ft 494 kts 43°
2026-05-04 01:57 -11.93173 -31.89965 32993 ft 495 kts 43°
2026-05-04 01:58 -11.88129 -31.85162 32992 ft 495 kts 43°
2026-05-04 01:58 -11.83102 -31.80376 32992 ft 495 kts 43°
2026-05-04 01:59 -11.78046 -31.75565 32991 ft 495 kts 42°
2026-05-04 01:59 -11.73018 -31.70785 32991 ft 496 kts 42°
2026-05-04 02:00 -11.67954 -31.65974 32991 ft 496 kts 43°
2026-05-04 02:00 -11.62902 -31.61176 32989 ft 497 kts 43°
2026-05-04 02:01 -11.57847 -31.56377 32985 ft 498 kts 43°
2026-05-04 02:01 -11.52796 -31.51583 32982 ft 497 kts 43°
2026-05-04 02:02 -11.47716 -31.46765 32982 ft 498 kts 42°
2026-05-04 02:02 -11.42633 -31.41947 32979 ft 499 kts 42°
2026-05-04 02:03 -11.37534 -31.37116 32976 ft 500 kts 42°
2026-05-04 02:03 -11.32452 -31.32305 32975 ft 501 kts 42°
2026-05-04 02:04 -11.27347 -31.27475 32974 ft 501 kts 42°
2026-05-04 02:04 -11.22248 -31.22651 32974 ft 501 kts 42°
2026-05-04 02:05 -11.17129 -31.17809 32972 ft 501 kts 42°
2026-05-04 02:05 -11.12029 -31.12990 32975 ft 502 kts 42°
2026-05-04 02:06 -11.06907 -31.08152 32970 ft 503 kts 42°
2026-05-04 02:06 -11.01779 -31.03311 32968 ft 503 kts 42°
2026-05-04 02:07 -10.96635 -30.98457 32971 ft 504 kts 42°
2026-05-04 02:07 -10.91473 -30.93590 32973 ft 505 kts 42°
2026-05-04 02:08 -10.86338 -30.88751 32986 ft 504 kts 42°
2026-05-04 02:08 -10.81213 -30.83921 32986 ft 503 kts 42°
2026-05-04 02:09 -10.76069 -30.79077 32974 ft 503 kts 42°
2026-05-04 02:09 -10.70941 -30.74252 32970 ft 502 kts 42°
2026-05-04 02:10 -10.65830 -30.69442 32970 ft 502 kts 42°
2026-05-04 02:10 -10.60693 -30.64611 32970 ft 502 kts 42°
2026-05-04 02:11 -10.55558 -30.59785 32970 ft 502 kts 42°
2026-05-04 02:11 -10.50455 -30.54991 32970 ft 502 kts 42°
2026-05-04 02:12 -10.45328 -30.50176 32970 ft 502 kts 42°
2026-05-04 02:12 -10.40198 -30.45361 32970 ft 502 kts 42°
2026-05-04 02:13 -10.35077 -30.40558 32968 ft 501 kts 42°
2026-05-04 02:13 -10.29942 -30.35742 32969 ft 502 kts 42°
2026-05-04 02:14 -10.24826 -30.30947 32968 ft 501 kts 42°
2026-05-04 02:14 -10.19679 -30.26124 32971 ft 501 kts 42°
2026-05-04 02:15 -10.14585 -30.21354 32968 ft 501 kts 42°
2026-05-04 02:15 -10.09421 -30.16521 32964 ft 502 kts 42°
2026-05-04 02:16 -10.04302 -30.11733 32968 ft 503 kts 42°
2026-05-04 02:16 -9.99145 -30.06910 32968 ft 503 kts 42°
2026-05-04 02:17 -9.94014 -30.02116 32967 ft 503 kts 42°
2026-05-04 02:17 -9.88875 -29.97316 32967 ft 502 kts 42°
2026-05-04 02:18 -9.83735 -29.92519 32971 ft 501 kts 42°
2026-05-04 02:18 -9.78612 -29.87737 32969 ft 502 kts 42°
2026-05-04 02:19 -9.73460 -29.82932 32966 ft 503 kts 42°
2026-05-04 02:19 -9.68310 -29.78130 32965 ft 502 kts 42°
2026-05-04 02:20 -9.63161 -29.73332 32962 ft 502 kts 42°
2026-05-04 02:20 -9.58027 -29.68548 32954 ft 503 kts 42°
2026-05-04 02:21 -9.52883 -29.63758 32952 ft 503 kts 42°
2026-05-04 02:21 -9.47724 -29.58956 32950 ft 503 kts 42°
2026-05-04 02:22 -9.42566 -29.54157 32952 ft 503 kts 42°
2026-05-04 02:22 -9.37389 -29.49342 32949 ft 503 kts 42°
2026-05-04 02:23 -9.32237 -29.44553 32951 ft 504 kts 42°
2026-05-04 02:23 -9.27095 -29.39776 32953 ft 504 kts 42°
2026-05-04 02:24 -9.21925 -29.34973 32952 ft 503 kts 42°
2026-05-04 02:24 -9.16751 -29.30168 32953 ft 503 kts 42°
2026-05-04 02:25 -9.11617 -29.25404 32953 ft 503 kts 42°
2026-05-04 02:25 -9.06456 -29.20617 32951 ft 504 kts 42°
2026-05-04 02:26 -9.01275 -29.15812 32954 ft 506 kts 42°
2026-05-04 02:26 -8.96084 -29.11001 32965 ft 505 kts 42°
2026-05-04 02:27 -8.90920 -29.06215 32971 ft 504 kts 42°
2026-05-04 02:27 -8.85729 -29.01407 32968 ft 504 kts 42°
2026-05-04 02:28 -8.80576 -28.96637 32967 ft 503 kts 42°
2026-05-04 02:28 -8.75429 -28.91873 32964 ft 503 kts 42°
2026-05-04 02:29 -8.70243 -28.87077 32963 ft 504 kts 41°
2026-05-04 02:29 -8.65085 -28.82307 32963 ft 504 kts 41°
2026-05-04 02:30 -8.59918 -28.77530 32967 ft 505 kts 41°
2026-05-04 02:30 -8.54745 -28.72751 32964 ft 505 kts 41°
2026-05-04 02:31 -8.49547 -28.67949 32962 ft 505 kts 41°
2026-05-04 02:31 -8.44363 -28.63164 32961 ft 505 kts 41°
2026-05-04 02:32 -8.39205 -28.58403 32958 ft 504 kts 41°
2026-05-04 02:32 -8.34027 -28.53627 32959 ft 504 kts 41°
2026-05-04 02:33 -8.28849 -28.48850 32956 ft 504 kts 41°
2026-05-04 02:33 -8.23674 -28.44081 32954 ft 504 kts 41°
2026-05-04 02:34 -8.18505 -28.39317 32956 ft 504 kts 41°
2026-05-04 02:34 -8.13315 -28.34536 32953 ft 505 kts 41°
2026-05-04 02:35 -8.08102 -28.29736 32951 ft 505 kts 41°
2026-05-04 02:35 -8.02919 -28.24965 32949 ft 506 kts 42°
2026-05-04 02:36 -7.97707 -28.20169 32950 ft 506 kts 42°
2026-05-04 02:36 -7.92510 -28.15388 32949 ft 507 kts 42°
2026-05-04 02:37 -7.87315 -28.10609 32953 ft 506 kts 41°
2026-05-04 02:37 -7.82103 -28.05818 32949 ft 506 kts 42°
2026-05-04 02:38 -7.76883 -28.01023 32954 ft 506 kts 42°
2026-05-04 02:38 -7.71693 -27.96255 32955 ft 506 kts 42°
2026-05-04 02:39 -7.66495 -27.91479 32953 ft 506 kts 42°
2026-05-04 02:39 -7.61280 -27.86693 32953 ft 505 kts 41°
2026-05-04 02:40 -7.56081 -27.81921 32952 ft 505 kts 41°
2026-05-04 02:40 -7.50888 -27.77159 32952 ft 505 kts 41°
2026-05-04 02:41 -7.45694 -27.72397 32950 ft 506 kts 41°
2026-05-04 02:41 -7.40492 -27.67627 32950 ft 505 kts 41°
2026-05-04 02:42 -7.35306 -27.62876 32950 ft 505 kts 41°
2026-05-04 02:42 -7.30119 -27.58123 32947 ft 504 kts 41°
2026-05-04 02:43 -7.24925 -27.53366 32945 ft 504 kts 41°
2026-05-04 02:43 -7.19723 -27.48604 32934 ft 503 kts 41°
2026-05-04 02:44 -7.14560 -27.43880 32931 ft 503 kts 41°
2026-05-04 02:44 -7.09345 -27.39109 32930 ft 504 kts 41°
2026-05-04 02:45 -7.04179 -27.34383 32925 ft 504 kts 41°
2026-05-04 02:45 -6.98996 -27.29643 32928 ft 504 kts 41°
2026-05-04 02:46 -6.93788 -27.24883 32927 ft 503 kts 40°
2026-05-04 02:46 -6.88610 -27.20152 32930 ft 503 kts 41°
2026-05-04 02:47 -6.83420 -27.15411 32929 ft 502 kts 41°
2026-05-04 02:47 -6.78258 -27.10699 32927 ft 502 kts 41°
2026-05-04 02:48 -6.73073 -27.05965 32927 ft 502 kts 41°
2026-05-04 02:48 -6.67895 -27.01240 32931 ft 502 kts 41°
2026-05-04 02:49 -6.62736 -26.96531 32929 ft 501 kts 41°
2026-05-04 02:49 -6.57572 -26.91819 32930 ft 501 kts 40°
2026-05-04 02:50 -6.52403 -26.87107 32930 ft 501 kts 40°
2026-05-04 02:50 -6.47250 -26.82411 32930 ft 500 kts 40°
2026-05-04 02:51 -6.42087 -26.77706 32930 ft 500 kts 40°
2026-05-04 02:51 -6.36940 -26.73019 32930 ft 501 kts 40°
2026-05-04 02:52 -6.31786 -26.68323 32930 ft 500 kts 40°
2026-05-04 02:52 -6.26630 -26.63628 32930 ft 499 kts 40°
2026-05-04 02:53 -6.21492 -26.58951 32930 ft 498 kts 40°
2026-05-04 02:53 -6.16372 -26.54291 32930 ft 499 kts 40°
2026-05-04 02:54 -6.11226 -26.49611 32930 ft 499 kts 40°
2026-05-04 02:54 -6.06067 -26.44918 32930 ft 499 kts 40°
2026-05-04 02:55 -5.98341 -26.37894 32929 ft 498 kts 40°
2026-05-04 02:56 -5.93223 -26.33242 32928 ft 498 kts 40°
2026-05-04 02:56 -5.88081 -26.28569 32927 ft 498 kts 41°
2026-05-04 02:57 -5.82924 -26.23884 32927 ft 498 kts 41°
2026-05-04 02:57 -5.77809 -26.19238 32921 ft 497 kts 41°
2026-05-04 02:58 -5.72687 -26.14587 32914 ft 497 kts 41°
2026-05-04 02:58 -5.67548 -26.09922 32911 ft 497 kts 41°
2026-05-04 02:59 -5.62399 -26.05248 32911 ft 499 kts 41°
2026-05-04 02:59 -5.57272 -26.00594 32909 ft 498 kts 41°
2026-05-04 03:00 -5.52128 -25.95927 32910 ft 498 kts 41°
2026-05-04 03:00 -5.46990 -25.91265 32917 ft 497 kts 41°
2026-05-04 03:01 -5.41865 -25.86617 32925 ft 497 kts 41°
2026-05-04 03:01 -5.36721 -25.81955 32928 ft 496 kts 41°
2026-05-04 03:02 -5.31604 -25.77318 32927 ft 496 kts 41°
2026-05-04 03:02 -5.26484 -25.72678 32930 ft 497 kts 41°
2026-05-04 03:03 -5.21340 -25.68017 32928 ft 498 kts 41°
2026-05-04 03:03 -5.16204 -25.63364 32926 ft 498 kts 41°
2026-05-04 03:04 -5.11057 -25.58703 32927 ft 499 kts 41°
2026-05-04 03:04 -5.05908 -25.54042 32928 ft 498 kts 41°
2026-05-04 03:05 -5.00762 -25.49382 32925 ft 498 kts 41°
2026-05-04 03:05 -4.95609 -25.44720 32929 ft 499 kts 41°
2026-05-04 03:06 -4.90472 -25.40072 32929 ft 499 kts 41°
2026-05-04 03:06 -4.85324 -25.35415 32930 ft 499 kts 41°
2026-05-04 03:07 -4.80152 -25.30737 32931 ft 498 kts 41°
2026-05-04 03:07 -4.74997 -25.26075 32922 ft 498 kts 41°
2026-05-04 03:08 -4.69867 -25.21437 32917 ft 497 kts 41°
2026-05-04 03:08 -4.64748 -25.16812 32914 ft 497 kts 41°
2026-05-04 03:09 -4.59615 -25.12173 32913 ft 497 kts 41°
2026-05-04 03:09 -4.54442 -25.07500 32914 ft 498 kts 41°
2026-05-04 03:10 -4.49321 -25.02875 32912 ft 498 kts 41°
2026-05-04 03:10 -4.44164 -24.98217 32917 ft 497 kts 41°
2026-05-04 03:11 -4.39032 -24.93583 32916 ft 496 kts 41°
2026-05-04 03:11 -4.33914 -24.88962 32919 ft 496 kts 41°
2026-05-04 03:12 -4.28803 -24.84349 32920 ft 496 kts 41°
2026-05-04 03:12 -4.23667 -24.79715 32918 ft 496 kts 41°
2026-05-04 03:13 -4.18526 -24.75077 32915 ft 497 kts 41°
2026-05-04 03:13 -4.13386 -24.70440 32916 ft 497 kts 41°
2026-05-04 03:14 -4.08283 -24.65837 32914 ft 497 kts 41°
2026-05-04 03:14 -4.03146 -24.61206 32915 ft 495 kts 41°
2026-05-04 03:15 -3.98004 -24.56568 32914 ft 495 kts 41°
2026-05-04 03:15 -3.92893 -24.51962 32916 ft 494 kts 41°
2026-05-04 03:16 -3.87816 -24.47385 32921 ft 494 kts 41°
2026-05-04 03:16 -3.82699 -24.42774 32920 ft 494 kts 41°
2026-05-04 03:17 -3.77576 -24.38158 32915 ft 494 kts 41°
2026-05-04 03:17 -3.72468 -24.33555 32916 ft 494 kts 41°
2026-05-04 03:18 -3.67360 -24.28956 32920 ft 494 kts 41°
2026-05-04 03:18 -3.62258 -24.24361 32923 ft 493 kts 41°
2026-05-04 03:19 -3.57131 -24.19745 32926 ft 493 kts 41°
2026-05-04 03:19 -3.52056 -24.15155 32918 ft 493 kts 43°
2026-05-04 03:20 -3.47241 -24.10255 32909 ft 493 kts 46°
2026-05-04 03:20 -3.42547 -24.05304 32911 ft 492 kts 46°
2026-05-04 03:21 -3.37824 -24.00324 32908 ft 492 kts 46°
2026-05-04 03:21 -3.33117 -23.95369 32906 ft 491 kts 46°
2026-05-04 03:22 -3.28420 -23.90428 32908 ft 491 kts 46°
2026-05-04 03:22 -3.23704 -23.85469 32907 ft 491 kts 46°
2026-05-04 03:23 -3.19004 -23.80529 32908 ft 490 kts 46°
2026-05-04 03:23 -3.14305 -23.75588 32907 ft 490 kts 46°
2026-05-04 03:24 -3.09603 -23.70646 32908 ft 489 kts 46°
2026-05-04 03:24 -3.04926 -23.65729 32909 ft 489 kts 45°
2026-05-04 03:25 -3.00244 -23.60809 32908 ft 487 kts 45°
2026-05-04 03:25 -2.95581 -23.55909 32909 ft 486 kts 45°
2026-05-04 03:26 -2.90919 -23.51013 32909 ft 485 kts 45°
2026-05-04 03:26 -2.86264 -23.46124 32909 ft 485 kts 45°
2026-05-04 03:27 -2.81604 -23.41229 32909 ft 486 kts 45°
2026-05-04 03:27 -2.76927 -23.36317 32909 ft 485 kts 45°
2026-05-04 03:28 -2.72297 -23.31454 32909 ft 484 kts 45°
2026-05-04 03:28 -2.67657 -23.26585 32909 ft 483 kts 45°
2026-05-04 03:29 -2.63028 -23.21725 32909 ft 482 kts 45°
2026-05-04 03:29 -2.58378 -23.16844 32909 ft 483 kts 45°
2026-05-04 03:30 -2.53745 -23.11981 32909 ft 483 kts 45°
2026-05-04 03:30 -2.49106 -23.07114 32909 ft 482 kts 45°
2026-05-04 03:31 -2.44480 -23.02259 32909 ft 482 kts 45°
2026-05-04 03:31 -2.39868 -22.97421 32909 ft 481 kts 45°
2026-05-04 03:32 -2.35243 -22.92568 32909 ft 480 kts 45°
2026-05-04 03:32 -2.30655 -22.87756 32908 ft 481 kts 46°
2026-05-04 03:33 -2.26027 -22.82901 32908 ft 482 kts 45°
2026-05-04 03:33 -2.21385 -22.78034 32909 ft 482 kts 45°
2026-05-04 03:34 -2.16782 -22.73206 32909 ft 481 kts 45°
2026-05-04 03:34 -2.12157 -22.68357 32909 ft 481 kts 45°
2026-05-04 03:35 -2.07525 -22.63500 32909 ft 481 kts 45°
2026-05-04 03:35 -2.02928 -22.58680 32909 ft 481 kts 46°
2026-05-04 03:36 -1.98293 -22.53823 32909 ft 481 kts 45°
2026-05-04 03:36 -1.93688 -22.48994 32909 ft 481 kts 45°
2026-05-04 03:37 -1.89056 -22.44138 32909 ft 481 kts 45°
2026-05-04 03:37 -1.84445 -22.39307 32909 ft 481 kts 45°
2026-05-04 03:38 -1.79816 -22.34458 32908 ft 482 kts 46°
2026-05-04 03:38 -1.75216 -22.29637 32904 ft 482 kts 45°
2026-05-04 03:39 -1.70584 -22.24784 32895 ft 482 kts 46°
2026-05-04 03:39 -1.65964 -22.19942 32894 ft 481 kts 46°
2026-05-04 03:40 -1.61336 -22.15093 32892 ft 481 kts 45°
2026-05-04 03:40 -1.56737 -22.10275 32893 ft 481 kts 46°
2026-05-04 03:41 -1.52109 -22.05429 32890 ft 481 kts 46°
2026-05-04 03:41 -1.47470 -22.00570 32890 ft 482 kts 46°
2026-05-04 03:42 -1.42843 -21.95723 32890 ft 482 kts 45°
2026-05-04 03:42 -1.38227 -21.90889 32889 ft 481 kts 46°
2026-05-04 03:43 -1.33607 -21.86050 32889 ft 481 kts 46°
2026-05-04 03:43 -1.29011 -21.81238 32894 ft 481 kts 46°
2026-05-04 03:44 -1.24381 -21.76389 32899 ft 480 kts 46°
2026-05-04 03:44 -1.19776 -21.71568 32903 ft 481 kts 45°
2026-05-04 03:45 -1.15134 -21.66708 32903 ft 481 kts 45°
2026-05-04 03:45 -1.10536 -21.61895 32903 ft 481 kts 45°
2026-05-04 03:46 -1.05902 -21.57043 32902 ft 480 kts 46°
2026-05-04 03:46 -1.01308 -21.52234 32901 ft 480 kts 46°
2026-05-04 03:47 -0.96705 -21.47415 32900 ft 479 kts 46°
2026-05-04 03:47 -0.92102 -21.42597 32903 ft 480 kts 45°
2026-05-04 03:48 -0.87481 -21.37761 32908 ft 480 kts 45°
2026-05-04 03:48 -0.82860 -21.32925 32909 ft 480 kts 45°
2026-05-04 03:49 -0.78275 -21.28123 32909 ft 480 kts 45°
2026-05-04 03:49 -0.73652 -21.23286 32909 ft 479 kts 45°
2026-05-04 03:50 -0.69050 -21.18469 32909 ft 479 kts 45°
2026-05-04 03:50 -0.64459 -21.13665 32909 ft 479 kts 45°
2026-05-04 03:51 -0.59852 -21.08844 32909 ft 479 kts 45°
2026-05-04 03:51 -0.55271 -21.04049 32909 ft 479 kts 45°
2026-05-04 03:52 -0.50646 -20.99211 32909 ft 479 kts 45°
2026-05-04 03:52 -0.46058 -20.94409 32909 ft 479 kts 45°
2026-05-04 03:53 -0.41480 -20.89619 32909 ft 478 kts 45°
2026-05-04 03:53 -0.36861 -20.84787 32909 ft 478 kts 45°
2026-05-04 03:54 -0.32287 -20.80001 32909 ft 478 kts 45°
2026-05-04 03:54 -0.27678 -20.75180 32909 ft 479 kts 45°
2026-05-04 03:55 -0.23077 -20.70363 32908 ft 480 kts 45°
2026-05-04 03:55 -0.18448 -20.65520 32901 ft 480 kts 45°
2026-05-04 03:56 -0.13835 -20.60695 32891 ft 480 kts 45°
2026-05-04 03:56 -0.09242 -20.55891 32889 ft 480 kts 45°
2026-05-04 03:57 -0.04629 -20.51064 32889 ft 479 kts 45°
2026-05-04 03:57 -0.00021 -20.46242 32889 ft 479 kts 45°
2026-05-04 03:58 0.06868 -20.39032 32889 ft 480 kts 45°
2026-05-04 03:58 0.11491 -20.34198 32889 ft 481 kts 46°
2026-05-04 03:59 0.16101 -20.29372 32889 ft 481 kts 46°
2026-05-04 03:59 0.20736 -20.24523 32889 ft 481 kts 46°
2026-05-04 04:00 0.25325 -20.19721 32889 ft 480 kts 46°
2026-05-04 04:00 0.29952 -20.14879 32889 ft 481 kts 46°
2026-05-04 04:01 0.34580 -20.10036 32888 ft 481 kts 46°
2026-05-04 04:01 0.39210 -20.05191 32889 ft 482 kts 46°
2026-05-04 04:02 0.43842 -20.00346 32889 ft 482 kts 46°
2026-05-04 04:02 0.48451 -19.95523 32888 ft 482 kts 46°
2026-05-04 04:03 0.53094 -19.90663 32888 ft 482 kts 46°
2026-05-04 04:03 0.57720 -19.85821 32890 ft 482 kts 46°
2026-05-04 04:04 0.62353 -19.80973 32889 ft 482 kts 46°
2026-05-04 04:04 0.66958 -19.76153 32889 ft 482 kts 46°
2026-05-04 04:05 0.71598 -19.71299 32889 ft 483 kts 46°
2026-05-04 04:05 0.76233 -19.66448 32888 ft 483 kts 46°
2026-05-04 04:06 0.80889 -19.61575 32891 ft 483 kts 46°
2026-05-04 04:06 0.85520 -19.56729 32896 ft 482 kts 46°
2026-05-04 04:07 0.90147 -19.51885 32900 ft 482 kts 46°
2026-05-04 04:07 0.94771 -19.47046 32899 ft 483 kts 46°
2026-05-04 04:08 0.99407 -19.42193 32899 ft 483 kts 46°
2026-05-04 04:08 1.04053 -19.37327 32898 ft 483 kts 46°
2026-05-04 04:09 1.08694 -19.32469 32895 ft 482 kts 46°
2026-05-04 04:09 1.13314 -19.27632 32896 ft 482 kts 46°
2026-05-04 04:10 1.17950 -19.22779 32894 ft 482 kts 46°
2026-05-04 04:10 1.22562 -19.17951 32894 ft 483 kts 46°
2026-05-04 04:11 1.27203 -19.13091 32895 ft 483 kts 46°
2026-05-04 04:11 1.31840 -19.08235 32898 ft 483 kts 46°
2026-05-04 04:12 1.36487 -19.03369 32902 ft 483 kts 46°
2026-05-04 04:12 1.41104 -18.98533 32906 ft 483 kts 46°
2026-05-04 04:13 1.45766 -18.93652 32909 ft 483 kts 46°
2026-05-04 04:13 1.50391 -18.88808 32909 ft 484 kts 46°
2026-05-04 04:14 1.55063 -18.83914 32909 ft 484 kts 46°
2026-05-04 04:14 1.59692 -18.79065 32909 ft 484 kts 46°
2026-05-04 04:15 1.64345 -18.74190 32908 ft 485 kts 46°
2026-05-04 04:15 1.68999 -18.69315 32906 ft 485 kts 46°
2026-05-04 04:16 1.73669 -18.64422 32906 ft 485 kts 46°
2026-05-04 04:16 1.78308 -18.59560 32906 ft 485 kts 46°
2026-05-04 04:17 1.82979 -18.54666 32901 ft 485 kts 46°
2026-05-04 04:17 1.87644 -18.49776 32894 ft 485 kts 46°
2026-05-04 04:18 1.92289 -18.44908 32889 ft 486 kts 46°
2026-05-04 04:18 1.96972 -18.40000 32889 ft 486 kts 46°
2026-05-04 04:19 2.01627 -18.35121 32888 ft 486 kts 46°
2026-05-04 04:19 2.06286 -18.30235 32891 ft 486 kts 46°
2026-05-04 04:20 2.10952 -18.25343 32890 ft 486 kts 46°
2026-05-04 04:20 2.15603 -18.20467 32893 ft 485 kts 46°
2026-05-04 04:21 2.20265 -18.15579 32890 ft 485 kts 46°
2026-05-04 04:21 2.24932 -18.10685 32891 ft 486 kts 46°
2026-05-04 04:22 2.29604 -18.05784 32886 ft 486 kts 46°
2026-05-04 04:22 2.34279 -18.00878 32882 ft 486 kts 46°
2026-05-04 04:23 2.38917 -17.96013 32887 ft 486 kts 46°
2026-05-04 04:23 2.43585 -17.91117 32888 ft 485 kts 46°
2026-05-04 04:24 2.48241 -17.86232 32890 ft 485 kts 46°
2026-05-04 04:24 2.52903 -17.81338 32894 ft 485 kts 46°
2026-05-04 04:25 2.57546 -17.76466 32897 ft 485 kts 46°
2026-05-04 04:25 2.62190 -17.71592 32898 ft 484 kts 46°
2026-05-04 04:26 2.66831 -17.66719 32898 ft 485 kts 46°
2026-05-04 04:26 2.71495 -17.61822 32899 ft 486 kts 46°
2026-05-04 04:27 2.76150 -17.56934 32898 ft 485 kts 46°
2026-05-04 04:27 2.80797 -17.52054 32902 ft 485 kts 46°
2026-05-04 04:28 2.85450 -17.47167 32905 ft 485 kts 46°
2026-05-04 04:28 2.90100 -17.42282 32906 ft 484 kts 46°
2026-05-04 04:29 2.94774 -17.37372 32907 ft 485 kts 46°
2026-05-04 04:29 2.99391 -17.32521 32910 ft 484 kts 46°
2026-05-04 04:30 3.04041 -17.27635 32909 ft 484 kts 46°
2026-05-04 04:30 3.08699 -17.22738 32911 ft 485 kts 46°
2026-05-04 04:31 3.13355 -17.17845 32911 ft 485 kts 46°
2026-05-04 04:31 3.17911 -17.13056 32911 ft 484 kts 46°
2026-05-04 04:32 3.22556 -17.08172 32914 ft 484 kts 46°
2026-05-04 04:32 3.27204 -17.03285 32910 ft 484 kts 46°
2026-05-04 04:33 3.31829 -16.98420 32911 ft 484 kts 46°
2026-05-04 04:33 3.36471 -16.93538 32911 ft 484 kts 46°
2026-05-04 04:34 3.41139 -16.88627 32909 ft 484 kts 46°
2026-05-04 04:34 3.45767 -16.83757 32911 ft 484 kts 46°
2026-05-04 04:35 3.50402 -16.78880 32911 ft 484 kts 46°
2026-05-04 04:35 3.55063 -16.73975 32911 ft 484 kts 46°
2026-05-04 04:36 3.59695 -16.69099 32910 ft 484 kts 46°
2026-05-04 04:36 3.64328 -16.64222 32911 ft 484 kts 46°
2026-05-04 04:37 3.73644 -16.54411 32903 ft 485 kts 46°
2026-05-04 04:38 3.78295 -16.49512 32896 ft 485 kts 46°
2026-05-04 04:38 3.82913 -16.44646 32893 ft 485 kts 46°
2026-05-04 04:39 3.87553 -16.39758 32889 ft 484 kts 46°
2026-05-04 04:39 3.92186 -16.34876 32889 ft 484 kts 46°
2026-05-04 04:40 3.96837 -16.29975 32889 ft 483 kts 46°
2026-05-04 04:40 4.01475 -16.25086 32891 ft 484 kts 46°
2026-05-04 04:41 4.06104 -16.20205 32894 ft 484 kts 46°
2026-05-04 04:41 4.10720 -16.15335 32901 ft 485 kts 46°
2026-05-04 04:42 4.15390 -16.10408 32907 ft 484 kts 46°
2026-05-04 04:42 4.20003 -16.05542 32908 ft 484 kts 46°
2026-05-04 04:43 4.24640 -16.00651 32909 ft 483 kts 46°
2026-05-04 04:43 4.29265 -15.95770 32910 ft 483 kts 46°
2026-05-04 04:44 4.33885 -15.90894 32910 ft 483 kts 46°
2026-05-04 04:44 4.38530 -15.85991 32907 ft 484 kts 46°
2026-05-04 04:45 4.43154 -15.81107 32907 ft 484 kts 46°
2026-05-04 04:47 4.59353 -15.63994 32910 ft 483 kts 46°
2026-05-04 04:47 4.63978 -15.59107 32908 ft 483 kts 46°
2026-05-04 04:48 4.68607 -15.54214 32909 ft 484 kts 46°
2026-05-04 04:49 4.80192 -15.41962 32910 ft 484 kts 46°
2026-05-04 04:49 4.84821 -15.37065 32911 ft 483 kts 46°
2026-05-04 04:50 4.89433 -15.32184 32909 ft 483 kts 46°
2026-05-04 04:50 4.94040 -15.27307 32911 ft 483 kts 46°
2026-05-04 04:51 4.98666 -15.22411 32910 ft 484 kts 46°
2026-05-04 04:51 5.03305 -15.17503 32909 ft 483 kts 47°
2026-05-04 04:52 5.07929 -15.12606 32909 ft 483 kts 47°
2026-05-04 04:52 5.12555 -15.07704 32909 ft 483 kts 47°
2026-05-04 04:53 5.17174 -15.02807 32909 ft 484 kts 46°
2026-05-04 04:53 5.21771 -14.97933 32909 ft 484 kts 46°
2026-05-04 04:54 5.26404 -14.93025 32906 ft 484 kts 46°
2026-05-04 04:54 5.31030 -14.88124 32900 ft 484 kts 47°
2026-05-04 04:55 5.35669 -14.83205 32897 ft 484 kts 47°
2026-05-04 04:55 5.40285 -14.78306 32897 ft 484 kts 47°
2026-05-04 04:56 5.44926 -14.73382 32896 ft 484 kts 47°
2026-05-04 04:56 5.49536 -14.68489 32896 ft 484 kts 47°
2026-05-04 04:57 5.54197 -14.63540 32898 ft 485 kts 47°
2026-05-04 04:57 5.58831 -14.58620 32899 ft 486 kts 47°
2026-05-04 04:58 5.63463 -14.53701 32898 ft 486 kts 47°
2026-05-04 04:58 5.68093 -14.48784 32897 ft 486 kts 47°
2026-05-04 04:59 5.72758 -14.43826 32900 ft 485 kts 47°
2026-05-04 04:59 5.77366 -14.38928 32899 ft 486 kts 47°
2026-05-04 05:00 5.82005 -14.33997 32905 ft 486 kts 47°
2026-05-04 05:01 5.88970 -14.26591 32910 ft 486 kts 47°
2026-05-04 05:01 5.93617 -14.21648 32910 ft 486 kts 47°
2026-05-04 05:02 5.98235 -14.16734 32908 ft 486 kts 47°
2026-05-04 05:02 6.02894 -14.11773 32910 ft 486 kts 47°
2026-05-04 05:03 6.07527 -14.06840 32908 ft 487 kts 47°
2026-05-04 05:04 6.16855 -13.96904 32914 ft 487 kts 47°
2026-05-04 05:04 6.21486 -13.91972 32913 ft 487 kts 47°
2026-05-04 05:06 6.40093 -13.72130 32911 ft 489 kts 47°
2026-05-04 05:07 6.44767 -13.67142 32910 ft 489 kts 47°
2026-05-04 05:07 6.49431 -13.62164 32910 ft 489 kts 47°
2026-05-04 05:09 6.70414 -13.39753 32908 ft 490 kts 46°
2026-05-04 05:10 6.75096 -13.34749 32907 ft 490 kts 46°
2026-05-04 05:10 6.79759 -13.29762 32907 ft 490 kts 46°
2026-05-04 05:11 6.84409 -13.24787 32907 ft 490 kts 46°
2026-05-04 05:11 6.89079 -13.19788 32905 ft 490 kts 46°
2026-05-04 05:12 6.93770 -13.14769 32906 ft 490 kts 46°
2026-05-04 05:12 6.98425 -13.09786 32906 ft 491 kts 46°
2026-05-04 05:13 7.03105 -13.04774 32904 ft 491 kts 46°
2026-05-04 05:13 7.07775 -12.99771 32907 ft 492 kts 46°
2026-05-04 05:14 7.12484 -12.94721 32909 ft 492 kts 46°
2026-05-04 05:14 7.17148 -12.89720 32910 ft 491 kts 46°
2026-05-04 05:15 7.21831 -12.84697 32910 ft 491 kts 46°
2026-05-04 05:15 7.26509 -12.79680 32909 ft 491 kts 46°
2026-05-04 05:16 7.31168 -12.74682 32908 ft 491 kts 46°
2026-05-04 05:16 7.35845 -12.69663 32910 ft 492 kts 45°
2026-05-04 05:17 7.40533 -12.64628 32911 ft 492 kts 45°
2026-05-04 05:17 7.45215 -12.59598 32914 ft 492 kts 45°
2026-05-04 05:18 7.49894 -12.54569 32915 ft 491 kts 45°
2026-05-04 05:18 7.54552 -12.49562 32917 ft 491 kts 45°
2026-05-04 05:19 7.59256 -12.44507 32921 ft 491 kts 45°
2026-05-04 05:19 7.63922 -12.39489 32924 ft 491 kts 45°
2026-05-04 05:20 7.68582 -12.34475 32928 ft 491 kts 45°
2026-05-04 05:20 7.73245 -12.29454 32931 ft 490 kts 45°
2026-05-04 05:21 7.77915 -12.24426 32933 ft 490 kts 45°
2026-05-04 05:21 7.82568 -12.19415 32934 ft 491 kts 45°
2026-05-04 05:22 7.87232 -12.14391 32933 ft 491 kts 45°
2026-05-04 05:22 7.91881 -12.09380 32932 ft 491 kts 45°
2026-05-04 05:23 7.96541 -12.04355 32937 ft 491 kts 45°
2026-05-04 05:23 8.01200 -11.99329 32932 ft 490 kts 44°
2026-05-04 05:24 8.05851 -11.94312 32936 ft 490 kts 44°
2026-05-04 05:24 8.10520 -11.89274 32940 ft 491 kts 45°
2026-05-04 05:25 8.15200 -11.84222 32945 ft 491 kts 45°
2026-05-04 05:25 8.19846 -11.79202 32951 ft 491 kts 45°
2026-05-04 05:26 8.24504 -11.74167 32960 ft 491 kts 44°
2026-05-04 05:26 8.29181 -11.69112 32964 ft 491 kts 45°
2026-05-04 05:28 8.47788 -11.48980 32971 ft 490 kts 45°
2026-05-04 05:29 8.52429 -11.43954 32971 ft 491 kts 45°
2026-05-04 05:29 8.57067 -11.38929 32970 ft 490 kts 44°
2026-05-04 05:31 8.75653 -11.18773 32989 ft 489 kts 45°
2026-05-04 05:32 8.80270 -11.13762 32996 ft 489 kts 45°
2026-05-04 05:33 8.87219 -11.06215 33003 ft 488 kts 45°
2026-05-04 05:33 8.91832 -11.01201 33004 ft 487 kts 45°
2026-05-04 05:34 8.96442 -10.96188 33011 ft 487 kts 45°
2026-05-04 05:34 9.01078 -10.91147 33018 ft 487 kts 45°
2026-05-04 05:35 9.05674 -10.86148 33025 ft 488 kts 44°
2026-05-04 05:35 9.10306 -10.81109 33028 ft 488 kts 45°
2026-05-04 05:36 9.14921 -10.76081 33027 ft 488 kts 45°
2026-05-04 05:36 9.19555 -10.71036 33029 ft 488 kts 44°
2026-05-04 05:37 9.24161 -10.66015 33030 ft 488 kts 44°
2026-05-04 05:37 9.28779 -10.60982 33029 ft 487 kts 45°
2026-05-04 05:38 9.35697 -10.53436 33021 ft 488 kts 45°
2026-05-04 05:38 9.40302 -10.48411 33013 ft 488 kts 44°
2026-05-04 05:39 9.47222 -10.40855 33007 ft 488 kts 44°
2026-05-04 05:40 9.54147 -10.33290 33008 ft 488 kts 45°
2026-05-04 05:40 9.58765 -10.28241 33012 ft 487 kts 44°
2026-05-04 05:41 9.63368 -10.23205 33014 ft 488 kts 44°
2026-05-04 05:41 9.67963 -10.18180 33014 ft 488 kts 45°
2026-05-04 05:42 9.72561 -10.13149 33011 ft 487 kts 45°
2026-05-04 05:42 9.77156 -10.08117 33007 ft 487 kts 44°
2026-05-04 05:43 9.81751 -10.03084 33002 ft 486 kts 45°
2026-05-04 05:45 10.00103 -9.82958 32976 ft 486 kts 45°
2026-05-04 05:47 10.18475 -9.62771 32976 ft 486 kts 45°
2026-05-04 05:47 10.23049 -9.57740 32976 ft 485 kts 45°
2026-05-04 05:48 10.27629 -9.52702 32975 ft 485 kts 46°
2026-05-04 05:48 10.32187 -9.47684 32973 ft 485 kts 46°
2026-05-04 05:49 10.36777 -9.42627 32974 ft 485 kts 46°
2026-05-04 05:49 10.41337 -9.37600 32973 ft 485 kts 46°
2026-05-04 05:51 10.59574 -9.17482 32974 ft 483 kts 46°
2026-05-04 05:52 10.64138 -9.12440 32971 ft 483 kts 46°
2026-05-04 05:52 10.68663 -9.07442 32975 ft 482 kts 46°
2026-05-04 05:54 10.86773 -8.87399 32966 ft 481 kts 46°
2026-05-04 05:55 10.91305 -8.82382 32959 ft 481 kts 46°
2026-05-04 05:55 10.95830 -8.77369 32960 ft 481 kts 46°
2026-05-04 05:56 11.00354 -8.72352 32958 ft 481 kts 46°
2026-05-04 05:56 11.04865 -8.67347 32955 ft 482 kts 46°
2026-05-04 05:57 11.09421 -8.62289 32955 ft 481 kts 46°
2026-05-04 05:57 11.13929 -8.57281 32951 ft 482 kts 46°
2026-05-04 05:58 11.18466 -8.52243 32950 ft 482 kts 46°
2026-05-04 05:58 11.22982 -8.47224 32947 ft 483 kts 46°
2026-05-04 05:59 11.27554 -8.42140 32943 ft 485 kts 46°
2026-05-04 05:59 11.32101 -8.37082 32945 ft 485 kts 46°
2026-05-04 06:00 11.36658 -8.32009 32950 ft 485 kts 46°
2026-05-04 06:00 11.41205 -8.26941 32960 ft 487 kts 46°
2026-05-04 06:01 11.45778 -8.21847 32967 ft 486 kts 46°
2026-05-04 06:03 11.64102 -8.01402 32965 ft 490 kts 46°
2026-05-04 06:05 11.84822 -7.78230 32962 ft 493 kts 46°
2026-05-04 06:06 11.89459 -7.73036 32962 ft 494 kts 46°
2026-05-04 06:06 11.94081 -7.67857 32963 ft 493 kts 46°
2026-05-04 06:07 11.98743 -7.62630 32962 ft 494 kts 46°
2026-05-04 06:07 12.03382 -7.57425 32957 ft 495 kts 46°
2026-05-04 06:08 12.08054 -7.52182 32947 ft 494 kts 46°
2026-05-04 06:08 12.12690 -7.46976 32949 ft 495 kts 46°
2026-05-04 06:09 12.17324 -7.41769 32948 ft 494 kts 46°
2026-05-04 06:11 12.35866 -7.20903 32949 ft 494 kts 46°
2026-05-04 06:13 12.54380 -7.00022 32941 ft 496 kts 46°
2026-05-04 06:14 12.70606 -6.81682 32946 ft 497 kts 46°
2026-05-04 06:15 12.75217 -6.76465 32950 ft 497 kts 46°
2026-05-04 06:15 12.79870 -6.71195 32953 ft 497 kts 46°
2026-05-04 06:16 12.84494 -6.65954 32950 ft 497 kts 45°
2026-05-04 06:16 12.89135 -6.60691 32947 ft 497 kts 45°
2026-05-04 06:17 12.93782 -6.55420 32943 ft 497 kts 45°
2026-05-04 06:17 12.98413 -6.50165 32948 ft 498 kts 45°
2026-05-04 06:18 13.03034 -6.44918 32944 ft 498 kts 45°
2026-05-04 06:20 13.21589 -6.23809 32935 ft 498 kts 45°
2026-05-04 06:21 13.33165 -6.10617 32930 ft 498 kts 45°
2026-05-04 06:22 13.37790 -6.05338 32921 ft 498 kts 45°
2026-05-04 06:25 13.70155 -5.68325 32926 ft 497 kts 45°
2026-05-04 06:26 13.74900 -5.63195 32928 ft 496 kts 43°
2026-05-04 06:26 13.79787 -5.58131 32925 ft 496 kts 43°
2026-05-04 06:27 13.91899 -5.45576 32926 ft 496 kts 43°
2026-05-04 06:28 13.96770 -5.40513 32932 ft 495 kts 43°
2026-05-04 06:28 14.01609 -5.35480 32925 ft 496 kts 43°
2026-05-04 06:29 14.06442 -5.30450 32923 ft 495 kts 43°
2026-05-04 06:29 14.11312 -5.25379 32924 ft 495 kts 43°
2026-05-04 06:30 14.16146 -5.20342 32925 ft 495 kts 44°
2026-05-04 06:30 14.20960 -5.15324 32926 ft 494 kts 43°
2026-05-04 06:31 14.25801 -5.10272 32926 ft 493 kts 44°
2026-05-04 06:31 14.30586 -5.05276 32926 ft 493 kts 44°
2026-05-04 06:33 14.49841 -4.85139 32925 ft 493 kts 44°
2026-05-04 06:34 14.54654 -4.80100 32926 ft 491 kts 44°
2026-05-04 06:34 14.59435 -4.75089 32927 ft 492 kts 44°